Location: Bacharowice
(49.9333°N, 19.5833°E)
Time: 08:30:38
(UTC+00:00)

Cosmos 2344 - Pass Details

Date: 30 September 2021
Orbit: 1235 x 3007 km, 63.3° (Epoch: 19 October)

Event Time Altitude Azimuth Distance (km) Brightness Sun altitude
Rises 22:48:38 0° 316° (NW) 4,587 6.9 -43.1°
Reaches altitude 10° 22:51:23 10° 310° (NW) 3,756 6.3 -43.0°
Enters shadow 22:56:02 32° 290° (WNW) 2,665 5.2 -43.0°
